KB1DML-4 Weather Reports


time (UTC)temp
C
wind
direction
speed
KPH
gust
KPH
rain 1hr
cm
rain 24hr
cm
rain mn
cm
humidity
%
barometer
mb
20260905224516 17 0.0 0.0 0.00 0.28 0.28 93 1009.8
20260905224016 17 0.0 0.0 0.00 0.28 0.28 93 1009.6
20260905223516 17 0.0 0.0 0.00 0.28 0.28 93 1009.6
20260905223016 17 0.0 1.6 0.00 0.28 0.28 93 1009.6
20260905222556 17 0.0 0.0 0.00 0.28 0.28 93 1009.5
20260905222016 17 0.0 0.0 0.00 0.28 0.28 93 1009.5
20260905221536 17 0.0 0.0 0.00 0.28 0.28 93 1009.5
20260905221036 17 0.0 0.0 0.00 0.28 0.28 93 1009.3
20260905220516 17 0.0 0.0 0.00 0.28 0.28 93 1009.3
20260905220016 17 0.0 0.0 0.00 0.28 0.28 93 1009.3
20260905215516 17 0.0 0.0 0.00 0.28 0.28 93 1008.9
20260905215016 17 0.0 0.0 0.00 0.28 0.28 93 1008.9
20260905214556 17 0.0 1.6 0.00 0.28 0.28 93 1008.9
20260905214036 17 0.0 3.2 0.00 0.28 0.28 93 1008.6
20260905213516 17 0.0 4.8 0.00 0.28 0.28 92 1008.6
20260905213016 17 0.0 0.0 0.00 0.28 0.28 93 1008.6
20260905212516 17 0.0 3.2 0.00 0.28 0.28 92 1008.5
20260905212017 17 0.0 0.0 0.00 0.28 0.28 93 1008.5
20260905211515 17 0.0 0.0 0.08 0.28 0.28 93 1008.5
20260905211016 17 0.0 0.0 0.18 0.28 0.28 92 1008.4
20260905210516 17 0.0 0.0 0.20 0.28 0.28 92 1008.4
20260905210016 17 0.0 0.0 0.23 0.28 0.28 92 1008.4
20260905205515 17 0.0 0.0 0.23 0.28 0.28 92 1008.1
20260905205016 17 0.0 0.0 0.23 0.28 0.28 92 1008.1
20260905204515 17 0.0 0.0 0.28 0.28 0.28 92 1008.1
20260905204016 17 0.0 0.0 0.28 0.28 0.28 92 1008.1
20260905203516 17 0.0 1.6 0.28 0.28 0.28 91 1008.1
20260905203016 17 0.0 0.0 0.28 0.28 0.28 91 1008.1
20260905202515 17 0.0 1.6 0.28 0.28 0.28 91 1008.1
20260905202036 17 0.0 1.6 0.28 0.28 0.28 90 1008.1
20260905201556 17 0.0 1.6 0.20 0.20 0.20 90 1008.1
20260905201016 17 0.0 0.0 0.10 0.10 0.10 89 1008.2
20260905200516 18 0.0 1.6 0.08 0.08 0.08 88 1008.2
20260905200036 18 0.0 1.6 0.05 0.05 0.05 86 1008.2
20260905195516 18 0.0 4.8 0.05 0.05 0.05 85 1008.1
20260905195015 19 90 1.6 4.8 0.05 0.05 0.05 82 1008.1
20260905194516 20 45 4.8 14.5 0.00 0.00 0.00 78 1008.1
20260905194015 21 90 1.6 4.8 0.00 0.00 0.00 76 1007.6
20260905193516 21 0.0 3.2 0.00 0.00 0.00 75 1007.6
20260905193015 21 90 1.6 8.0 0.00 0.00 0.00 74 1007.6
20260905192535 21 90 1.6 8.0 0.00 0.00 0.00 73 1007.6
20260905192035 21 90 1.6 4.8 0.00 0.00 0.00 73 1007.6
20260905191535 22 0.0 3.2 0.00 0.00 0.00 73 1007.6
20260905191015 22 0.0 1.6 0.00 0.00 0.00 75 1007.6
20260905190536 22 0.0 3.2 0.00 0.00 0.00 75 1007.6
20260905190015 22 45 1.6 4.8 0.00 0.00 0.00 72 1007.6
20260905185536 22 90 1.6 4.8 0.00 0.00 0.00 72 1007.6
20260905185015 22 0.0 6.4 0.00 0.00 0.00 72 1007.6
20260905184515 22 0.0 3.2 0.00 0.00 0.00 72 1007.6
20260905184015 22 0.0 1.6 0.00 0.00 0.00 73 1007.5
20260905183515 22 113 1.6 4.8 0.00 0.00 0.00 74 1007.5
20260905183015 22 113 1.6 6.4 0.00 0.00 0.00 73 1007.5
20260905182515 22 113 3.2 8.0 0.00 0.00 0.00 73 1007.7
20260905182016 22 135 1.6 4.8 0.00 0.00 0.00 72 1007.7
20260905181515 22 0.0 3.2 0.00 0.00 0.00 73 1007.7
20260905181015 22 90 1.6 4.8 0.00 0.00 0.00 73 1007.8
20260905180515 22 90 1.6 4.8 0.00 0.00 0.00 74 1007.8
20260905180016 22 0.0 3.2 0.00 0.00 0.00 74 1007.8
20260905175535 22 90 1.6 4.8 0.00 0.00 0.00 74 1007.9
20260905175035 22 90 1.6 4.8 0.00 0.00 0.00 72 1007.9
20260905174516 22 45 1.6 4.8 0.00 0.00 0.00 71 1007.9
20260905174015 22 0 1.6 6.4 0.00 0.00 0.00 69 1008.1
20260905173515 22 68 1.6 4.8 0.00 0.00 0.00 71 1008.1
20260905173015 22 23 3.2 8.0 0.00 0.00 0.00 71 1008.1
20260905172515 22 0 1.6 4.8 0.00 0.00 0.00 71 1008.3
20260905172015 22 338 4.8 9.7 0.00 0.00 0.00 71 1008.3
20260905171515 22 90 3.2 8.0 0.00 0.00 0.00 71 1008.3
20260905171035 22 90 1.6 8.0 0.00 0.00 0.00 71 1008.6
20260905170535 22 23 3.2 8.0 0.00 0.00 0.00 71 1008.6
20260905170015 22 338 3.2 4.8 0.00 0.00 0.00 71 1008.6
20260905165515 22 0 1.6 4.8 0.00 0.00 0.00 70 1008.8
20260905165015 22 23 3.2 8.0 0.00 0.00 0.00 70 1008.8
20260905164515 22 68 1.6 9.7 0.00 0.00 0.00 70 1008.8
20260905164035 22 338 1.6 4.8 0.00 0.00 0.00 71 1009.1
20260905163535 22 23 3.2 8.0 0.00 0.00 0.00 70 1009.1
20260905163015 22 338 4.8 9.7 0.00 0.00 0.00 69 1009.1
20260905162515 22 338 1.6 4.8 0.00 0.00 0.00 70 1009.5
20260905162015 22 68 1.6 9.7 0.00 0.00 0.00 68 1009.5
20260905161515 22 68 1.6 9.7 0.00 0.00 0.00 70 1009.5
20260905161015 22 0.0 1.6 0.00 0.00 0.00 73 1009.7
20260905160515 21 338 1.6 9.7 0.00 0.00 0.00 73 1009.7
20260905160015 21 68 1.6 12.9 0.00 0.00 0.00 73 1009.7
20260905155515 21 338 1.6 3.2 0.00 0.00 0.00 74 1009.9
20260905155015 21 23 1.6 3.2 0.00 0.00 0.00 73 1009.9
20260905154515 21 0.0 4.8 0.00 0.00 0.00 74 1009.9
20260905154015 21 338 1.6 4.8 0.00 0.00 0.00 76 1010.1
20260905153515 21 0.0 3.2 0.00 0.00 0.00 76 1010.1
20260905153015 21 0.0 3.2 0.00 0.00 0.00 77 1010.1
20260905152535 21 0.0 1.6 0.00 0.00 0.00 78 1010.1
20260905152015 21 0 1.6 4.8 0.00 0.00 0.00 77 1010.1
20260905151515 21 0.0 1.6 0.00 0.00 0.00 77 1010.1
20260905151015 21 0.0 1.6 0.00 0.00 0.00 77 1010.4
20260905150535 21 0.0 4.8 0.00 0.00 0.00 76 1010.4
20260905150015 21 0.0 1.6 0.00 0.00 0.00 76 1010.4
20260905145535 21 0.0 4.8 0.00 0.00 0.00 77 1010.5
20260905145015 21 338 1.6 6.4 0.00 0.00 0.00 76 1010.5
20260905144535 21 315 1.6 4.8 0.00 0.00 0.00 77 1010.5
20260905144015 20 0.0 1.6 0.00 0.00 0.00 79 1010.5
20260905143515 20 338 1.6 4.8 0.00 0.00 0.00 79 1010.5
20260905143015 20 338 1.6 4.8 0.00 0.00 0.00 79 1010.5
20260905142515 20 0 1.6 3.2 0.00 0.00 0.00 79 1010.7
20260905142015 20 338 3.2 4.8 0.00 0.00 0.00 79 1010.7
20260905141515 20 338 3.2 6.4 0.00 0.00 0.00 79 1010.7
20260905141015 20 0.0 3.2 0.00 0.00 0.00 79 1010.6
20260905140515 20 338 1.6 3.2 0.00 0.00 0.00 79 1010.6
20260905140015 20 338 3.2 4.8 0.00 0.00 0.00 79 1010.6
20260905135515 20 338 1.6 9.7 0.00 0.00 0.00 80 1010.4
20260905135015 20 0.0 4.8 0.00 0.00 0.00 81 1010.4
20260905134517 20 338 1.6 3.2 0.00 0.00 0.00 82 1010.4
20260905134015 20 338 1.6 3.2 0.00 0.00 0.00 82 1010.2
20260905133515 19 0.0 1.6 0.00 0.00 0.00 83 1010.2
20260905133017 19 338 1.6 3.2 0.00 0.00 0.00 82 1010.2
20260905132517 19 0.0 1.6 0.00 0.00 0.00 84 1010.0
20260905132017 19 0.0 1.6 0.00 0.00 0.00 84 1010.0
20260905131537 19 0.0 1.6 0.00 0.00 0.00 84 1010.0
20260905131017 19 0.0 1.6 0.00 0.00 0.00 84 1010.0
20260905130537 19 0.0 1.6 0.00 0.00 0.00 84 1010.0
20260905130017 19 0 1.6 3.2 0.00 0.00 0.00 84 1010.0
20260905125517 19 338 1.6 4.8 0.00 0.00 0.00 84 1009.8
20260905125017 18 338 1.6 4.8 0.00 0.00 0.00 84 1009.8
20260905124517 18 0.0 1.6 0.00 0.00 0.00 85 1009.8
20260905124017 18 23 1.6 3.2 0.00 0.00 0.00 85 1009.4
20260905123517 18 0.0 0.0 0.00 0.00 0.00 86 1009.4
20260905123017 18 0.0 3.2 0.00 0.00 0.00 85 1009.4
20260905122517 18 315 1.6 4.8 0.00 0.00 0.00 86 1009.3
20260905122017 18 315 1.6 4.8 0.00 0.00 0.00 86 1009.3
20260905121517 18 0.0 3.2 0.00 0.00 0.00 86 1009.3
20260905121017 18 0 1.6 3.2 0.00 0.00 0.00 86 1009.0
20260905120517 18 0 1.6 3.2 0.00 0.00 0.00 86 1009.0
20260905120017 18 315 1.6 3.2 0.00 0.00 0.00 86 1009.0
20260905115537 18 315 3.2 4.8 0.00 0.00 0.00 86 1008.7
20260905115017 18 338 3.2 8.0 0.00 0.00 0.00 86 1008.7
20260905114537 18 338 3.2 4.8 0.00 0.00 0.00 87 1008.7
20260905114017 18 338 3.2 4.8 0.00 0.00 0.00 87 1008.3
20260905113517 17 338 3.2 4.8 0.00 0.00 0.00 87 1008.3
20260905113017 17 338 3.2 4.8 0.00 0.00 0.00 87 1008.3
20260905112537 17 0 3.2 4.8 0.00 0.00 0.00 87 1008.0
20260905112017 17 338 3.2 6.4 0.00 0.00 0.00 87 1008.0
20260905111537 17 315 3.2 4.8 0.00 0.00 0.00 87 1008.0
20260905111017 17 315 1.6 6.4 0.00 0.00 0.00 87 1007.8
20260905110017 17 315 3.2 8.0 0.00 0.00 0.00 87 1007.8
20260905105557 17 315 3.2 6.4 0.00 0.00 0.00 87 1007.6
20260905105017 17 315 3.2 4.8 0.00 0.00 0.00 87 1007.6
20260905104517 17 338 1.6 4.8 0.00 0.00 0.00 88 1007.6
20260905104037 17 315 1.6 4.8 0.00 0.00 0.00 87 1007.5
20260905103517 17 315 1.6 4.8 0.00 0.00 0.00 87 1007.5
20260905103017 17 315 1.6 3.2 0.00 0.00 0.00 87 1007.5
20260905102517 17 315 1.6 3.2 0.00 0.00 0.00 87 1007.2
20260905102017 17 315 1.6 4.8 0.00 0.00 0.00 87 1007.2
20260905101517 17 293 3.2 6.4 0.00 0.00 0.00 87 1007.2
20260905101017 17 293 3.2 4.8 0.00 0.00 0.00 87 1007.2
20260905100517 17 315 1.6 3.2 0.00 0.00 0.00 86 1007.2
20260905100017 17 338 1.6 3.2 0.00 0.00 0.00 86 1007.2
20260905095537 17 338 1.6 3.2 0.00 0.00 0.00 86 1006.8
20260905095016 17 293 1.6 3.2 0.00 0.00 0.00 86 1006.8
20260905094517 17 338 1.6 3.2 0.00 0.00 0.00 86 1006.8
20260905094037 17 315 3.2 6.4 0.00 0.00 0.00 85 1006.7
20260905093537 18 293 1.6 4.8 0.00 0.00 0.00 86 1006.7
20260905093016 18 315 1.6 3.2 0.00 0.00 0.00 85 1006.7
20260905092517 18 315 3.2 6.4 0.00 0.00 0.00 85 1006.6
20260905092017 18 0.0 1.6 0.00 0.00 0.00 86 1006.6
20260905091517 18 0.0 0.0 0.00 0.00 0.00 85 1006.6
20260905091036 18 0.0 3.2 0.00 0.00 0.00 85 1006.4
20260905090517 18 315 1.6 3.2 0.00 0.00 0.00 85 1006.4
20260905090016 18 0.0 1.6 0.00 0.00 0.00 85 1006.4
20260905085537 18 0.0 1.6 0.00 0.00 0.00 85 1006.2
20260905085017 18 0.0 1.6 0.00 0.00 0.00 85 1006.2
20260905084517 18 293 1.6 3.2 0.00 0.00 0.00 85 1006.2
20260905084017 18 315 1.6 3.2 0.00 0.00 0.00 85 1006.3
20260905083516 18 0.0 1.6 0.00 0.00 0.00 84 1006.3
20260905083016 18 0.0 1.6 0.00 0.00 0.00 84 1006.3
20260905082517 18 0.0 1.6 0.00 0.00 0.00 84 1006.2
20260905082017 18 315 1.6 3.2 0.00 0.00 0.00 84 1006.2
20260905081537 18 0.0 3.2 0.00 0.00 0.00 84 1006.2
20260905081016 18 0.0 3.2 0.00 0.00 0.00 83 1006.1
20260905080517 18 0.0 1.6 0.00 0.00 0.00 83 1006.1
20260905080057 18 315 1.6 4.8 0.00 0.00 0.00 83 1006.1
20260905075517 18 0.0 1.6 0.00 0.00 0.00 83 1005.9
20260905075017 18 338 1.6 3.2 0.00 0.00 0.00 83 1005.9
20260905074517 18 315 1.6 6.4 0.00 0.00 0.00 83 1005.9
20260905074016 18 0.0 3.2 0.00 0.00 0.00 83 1006.1
20260905073517 18 315 1.6 3.2 0.00 0.00 0.00 83 1006.1
20260905073017 18 293 1.6 3.2 0.00 0.00 0.00 83 1006.1
20260905072517 18 315 1.6 6.4 0.00 0.00 0.00 82 1006.1
20260905072017 18 0.0 3.2 0.00 0.00 0.00 82 1006.1
20260905071517 18 0.0 1.6 0.00 0.00 0.00 82 1006.1
20260905071017 18 0.0 3.2 0.00 0.00 0.00 81 1006.2
20260905070517 18 0.0 3.2 0.00 0.00 0.00 82 1006.2
20260905070017 19 0.0 1.6 0.00 0.00 0.00 81 1006.2
20260905065517 19 0.0 3.2 0.00 0.00 0.00 82 1006.2
20260905065017 19 293 1.6 4.8 0.00 0.00 0.00 81 1006.2
20260905064517 19 293 3.2 8.0 0.00 0.00 0.00 81 1006.2
20260905064037 19 293 4.8 8.0 0.00 0.00 0.00 81 1006.3
20260905063517 19 293 3.2 8.0 0.00 0.00 0.00 81 1006.3
20260905063017 19 315 3.2 6.4 0.00 0.00 0.00 81 1006.3
20260905062517 19 315 3.2 6.4 0.00 0.00 0.00 80 1006.3
20260905062016 19 315 4.8 8.0 0.00 0.00 0.00 80 1006.3
20260905061517 19 293 6.4 9.7 0.00 0.00 0.00 80 1006.3
20260905061016 20 293 4.8 9.7 0.00 0.00 0.00 79 1006.4
20260905060536 20 293 3.2 8.0 0.00 0.00 0.00 80 1006.4
20260905060017 20 293 1.6 4.8 0.00 0.00 0.00 79 1006.4
20260905055516 20 293 3.2 6.4 0.00 0.00 0.00 80 1006.2
20260905055017 20 293 4.8 8.0 0.00 0.00 0.00 80 1006.2
20260905054517 20 293 6.4 9.7 0.00 0.00 0.00 80 1006.2
20260905054037 20 293 4.8 9.7 0.00 0.00 0.00 80 1006.2
20260905053516 20 293 3.2 9.7 0.00 0.00 0.00 79 1006.2
20260905053017 20 293 4.8 9.7 0.00 0.00 0.00 79 1006.2
20260905052517 20 293 1.6 8.0 0.00 0.00 0.00 79 1006.2
20260905052036 20 293 1.6 6.4 0.00 0.00 0.00 78 1006.2
20260905051516 20 293 4.8 6.4 0.00 0.00 0.00 79 1006.2
20260905051016 20 315 3.2 6.4 0.00 0.00 0.00 79 1006.1
20260905050516 20 315 4.8 6.4 0.00 0.00 0.00 79 1006.1
20260905050016 20 293 1.6 6.4 0.00 0.00 0.00 79 1006.1
20260905045516 20 0.0 3.2 0.00 0.00 0.00 80 1005.9
20260905045016 20 293 1.6 3.2 0.00 0.00 0.00 78 1005.9
20260905044536 20 315 1.6 3.2 0.00 0.00 0.00 78 1005.9
20260905044016 20 0.0 3.2 0.00 0.00 0.00 77 1006.1
20260905043516 20 293 1.6 3.2 0.00 0.00 0.00 77 1006.1
20260905043016 20 293 4.8 9.7 0.00 0.00 0.00 76 1006.1
20260905042516 20 293 6.4 8.0 0.00 0.00 0.00 76 1006.1
20260905042016 20 293 3.2 6.4 0.00 0.00 0.00 77 1006.1
20260905041516 20 315 6.4 9.7 0.00 0.00 0.00 77 1006.1
20260905041017 20 293 4.8 9.7 0.00 0.00 0.00 77 1005.8
20260905040536 20 315 4.8 8.0 0.00 0.00 0.00 77 1005.8
20260905040036 20 293 4.8 9.7 0.00 0.00 0.00 77 1005.8
20260905035517 20 293 3.2 4.8 0.00 0.00 0.00 77 1005.7
20260905035017 20 315 4.8 8.0 0.00 0.00 0.00 78 1005.7
20260905034517 20 315 8.0 11.3 0.00 0.00 0.00 78 1005.7
20260905034017 20 315 6.4 9.7 0.00 0.00 0.00 78 1005.7
20260905033517 20 315 4.8 8.0 0.00 0.00 0.00 78 1005.7
20260905033017 20 0.0 3.2 0.00 0.00 0.00 76 1005.7
20260905032537 20 293 3.2 6.4 0.00 0.00 0.00 77 1005.8
20260905032017 20 293 1.6 4.8 0.00 0.00 0.00 76 1005.8
20260905031517 20 0.0 3.2 0.00 0.00 0.00 77 1005.8
20260905031037 20 0.0 3.2 0.00 0.00 0.00 78 1006.0
20260905030517 20 293 1.6 4.8 0.00 0.00 0.00 79 1005.9
20260905030017 20 293 4.8 8.0 0.00 0.00 0.00 78 1005.9
20260905025517 20 293 6.4 8.0 0.00 0.00 0.00 79 1005.9
20260905025017 20 293 3.2 6.4 0.00 0.00 0.00 79 1005.9
20260905024537 20 0.0 3.2 0.00 0.00 0.00 78 1005.9
20260905024017 20 0.0 0.0 0.00 0.00 0.00 78 1005.8
20260905023537 20 0.0 1.6 0.00 0.00 0.00 77 1005.8
20260905023017 20 0.0 3.2 0.00 0.00 0.00 77 1005.8
20260905022517 20 0.0 3.2 0.00 0.00 0.00 77 1006.1
20260905022017 20 0.0 1.6 0.00 0.00 0.00 78 1006.1
20260905021517 20 0.0 0.0 0.00 0.00 0.00 77 1006.1
20260905021037 20 0.0 0.0 0.00 0.00 0.00 77 1006.1
20260905020517 21 0.0 0.0 0.00 0.00 0.00 77 1006.1
20260905020017 21 0.0 1.6 0.00 0.00 0.00 77 1006.1
20260905015517 21 0.0 3.2 0.00 0.00 0.00 77 1006.1
20260905015017 21 315 1.6 3.2 0.00 0.00 0.00 78 1006.1
20260905014517 21 0.0 3.2 0.00 0.00 0.00 75 1006.1
20260905014037 21 293 1.6 4.8 0.00 0.00 0.00 73 1006.1
20260905013517 21 0.0 1.6 0.00 0.00 0.00 74 1006.1
20260905013017 21 0.0 0.0 0.00 0.00 0.00 73 1006.1
20260905012517 21 293 1.6 3.2 0.00 0.00 0.00 75 1006.1
20260905012017 21 0.0 0.0 0.00 0.00 0.00 73 1006.1
20260905011517 21 0.0 0.0 0.00 0.00 0.00 72 1006.1
20260905011017 21 0.0 0.0 0.00 0.00 0.00 71 1006.0
20260905010517 22 0.0 0.0 0.00 0.00 0.00 70 1006.0
20260905010017 22 0.0 0.0 0.00 0.00 0.00 71 1006.1
20260905005517 22 293 1.6 3.2 0.00 0.00 0.00 70 1005.9
20260905005017 22 315 1.6 3.2 0.00 0.00 0.00 68 1005.9
20260905004537 22 315 1.6 4.8 0.00 0.00 0.00 67 1005.9
20260905004017 22 293 1.6 3.2 0.00 0.00 0.00 68 1006.0
20260905003517 22 293 1.6 4.8 0.00 0.00 0.00 67 1006.0
20260905003017 22 0.0 1.6 0.00 0.00 0.00 67 1006.0
20260905002517 22 315 3.2 6.4 0.00 0.00 0.00 66 1005.9
20260905002037 22 315 3.2 4.8 0.00 0.00 0.00 66 1005.9
20260905001517 22 315 3.2 4.8 0.00 0.00 0.00 66 1005.9
20260905001017 22 315 3.2 6.4 0.00 0.00 0.00 66 1005.9
20260905000517 22 315 3.2 4.8 0.00 0.00 0.00 67 1005.9
20260905000017 22 293 4.8 8.0 0.00 0.00 0.00 66 1005.9
20260904235537 22 315 3.2 6.4 0.00 0.00 0.00 67 1005.5
20260904235017 22 315 3.2 6.4 0.00 0.00 0.00 68 1005.5
20260904234517 22 315 1.6 4.8 0.00 0.00 0.00 69 1005.5
20260904234017 22 315 1.6 4.8 0.00 0.00 0.00 69 1005.4
20260904233517 23 293 1.6 3.2 0.00 0.00 0.00 72 1005.5
20260904233017 23 315 1.6 3.2 0.00 0.00 0.00 68 1005.5
20260904232516 23 0.0 1.6 0.00 0.00 0.00 69 1005.3
20260904232016 23 0.0 3.2 0.00 0.00 0.00 67 1005.3
20260904231537 23 315 1.6 3.2 0.00 0.00 0.00 67 1005.3
20260904231016 23 0.0 0.0 0.00 0.00 0.00 66 1005.3
20260904230516 23 0.0 3.2 0.00 0.00 0.00 65 1005.3
20260904230017 23 0.0 3.2 0.00 0.00 0.00 65 1005.3
20260904225517 24 0.0 1.6 0.00 0.00 0.00 64 1005.2
20260904225017 24 315 1.6 4.8 0.00 0.00 0.00 64 1005.2